Time,TemperatureF,DewpointF,PressureIn,WindDirection,WindDirectionDegrees,WindSpeedMPH,WindSpeedGustMPH,Humidity,HourlyPrecipIn,Conditions,Clouds,dailyrainin,SolarRadiationWatts/m^2,SoftwareType,DateUTC
2013-08-13 00:04:00,83.4,66.1,29.66,SSE,158,5.0,9.0,56,0.00,,SKC,0.00,0.00,VWS V14.00,2013-08-13 05:04:00,
2013-08-13 00:09:00,82.9,67.1,29.65,SSE,163,5.0,9.0,59,0.00,,SKC,0.00,0.00,VWS V14.00,2013-08-13 05:09:00,
2013-08-13 00:10:00,82.9,67.1,29.65,SSE,163,4.0,9.0,59,0.00,,SKC,0.00,0.00,VWS V14.01,2013-08-13 05:10:00,
2013-08-13 00:14:00,82.8,67.0,29.65,SSE,163,4.0,6.0,59,0.00,,SKC,0.00,0.00,VWS V14.00,2013-08-13 05:14:00,
2013-08-13 00:19:00,82.6,67.3,29.65,SSE,163,5.0,10.0,60,0.00,,SKC,0.00,0.00,VWS V14.00,2013-08-13 05:19:00,
2013-08-13 00:20:00,82.6,67.3,29.65,SSE,163,2.0,10.0,60,0.00,,SKC,0.00,0.00,VWS V14.01,2013-08-13 05:20:00,
2013-08-13 00:24:00,82.5,67.7,29.65,SSE,163,4.0,7.0,61,0.00,,SKC,0.00,0.00,VWS V14.00,2013-08-13 05:24:00,
2013-08-13 00:29:00,82.4,67.6,29.65,SSE,163,0.0,7.0,61,0.00,,SKC,0.00,0.00,VWS V14.00,2013-08-13 05:29:00,
2013-08-13 00:30:00,82.4,67.6,29.65,SSE,163,6.0,9.0,61,0.00,,SKC,0.00,0.00,VWS V14.01,2013-08-13 05:30:00,
2013-08-13 00:34:00,82.3,68.0,29.65,SSE,163,5.0,8.0,62,0.00,,SKC,0.00,0.00,VWS V14.00,2013-08-13 05:34:00,
2013-08-13 00:39:00,82.2,67.9,29.64,SSE,163,2.0,9.0,62,0.00,,SKC,0.00,0.00,VWS V14.00,2013-08-13 05:39:00,
2013-08-13 00:40:00,82.2,68.4,29.64,SSE,163,6.0,9.0,63,0.00,,SKC,0.00,0.00,VWS V14.01,2013-08-13 05:40:00,
2013-08-13 00:44:00,82.1,68.3,29.64,SSE,163,4.0,8.0,63,0.00,,SKC,0.00,0.00,VWS V14.00,2013-08-13 05:44:00,
2013-08-13 00:49:00,82.0,68.6,29.65,SSE,163,4.0,11.0,64,0.00,,SKC,0.00,0.00,VWS V14.00,2013-08-13 05:49:00,
2013-08-13 00:50:00,82.0,68.6,29.65,SSE,163,6.0,11.0,64,0.00,,SKC,0.00,0.00,VWS V14.01,2013-08-13 05:50:00,
2013-08-13 00:54:00,82.0,68.6,29.64,SSE,163,1.0,8.0,64,0.00,,SKC,0.00,0.00,VWS V14.00,2013-08-13 05:54:00,
2013-08-13 00:59:00,81.9,69.0,29.64,SSE,163,6.0,9.0,65,0.00,,SKC,0.00,0.00,VWS V14.00,2013-08-13 05:59:00,
2013-08-13 01:00:00,81.9,69.0,29.65,SSE,158,5.0,15.0,65,0.00,,SKC,0.00,0.00,VWS V14.01,2013-08-13 06:00:00,
2013-08-13 01:04:00,81.8,68.9,29.65,SSE,160,7.0,11.0,65,0.00,,SKC,0.00,0.00,VWS V14.00,2013-08-13 06:04:00,
2013-08-13 01:09:00,81.8,69.3,29.65,SSE,160,8.0,11.0,66,0.00,,SKC,0.00,0.00,VWS V14.00,2013-08-13 06:09:00,
2013-08-13 01:10:00,81.8,69.3,29.65,SSE,159,8.0,11.0,66,0.00,,SKC,0.00,0.00,VWS V14.01,2013-08-13 06:10:00,
2013-08-13 01:14:00,81.8,69.3,29.64,SSE,157,6.0,14.0,66,0.00,,SKC,0.00,0.00,VWS V14.00,2013-08-13 06:14:00,
2013-08-13 01:19:00,81.7,69.7,29.64,SSE,157,7.0,14.0,67,0.00,,SKC,0.00,0.00,VWS V14.00,2013-08-13 06:19:00,
2013-08-13 01:20:00,81.6,69.6,29.64,SSE,157,11.0,14.0,67,0.00,,SKC,0.00,0.00,VWS V14.01,2013-08-13 06:20:00,
2013-08-13 01:24:00,81.6,69.6,29.64,SSE,157,8.0,12.0,67,0.00,,SKC,0.00,0.00,VWS V14.00,2013-08-13 06:24:00,
2013-08-13 01:29:00,81.5,69.5,29.64,SSE,155,5.0,13.0,67,0.00,,SKC,0.00,0.00,VWS V14.00,2013-08-13 06:29:00,
2013-08-13 01:30:00,81.5,69.9,29.64,SSE,154,7.0,13.0,68,0.00,,SKC,0.00,0.00,VWS V14.01,2013-08-13 06:30:00,
2013-08-13 01:34:00,81.4,69.8,29.64,SSE,153,8.0,14.0,68,0.00,,SKC,0.00,0.00,VWS V14.00,2013-08-13 06:34:00,
2013-08-13 01:39:00,81.3,69.7,29.64,SSE,154,8.0,14.0,68,0.00,,SKC,0.00,0.00,VWS V14.00,2013-08-13 06:39:00,
2013-08-13 01:40:00,81.2,69.6,29.64,SSE,154,4.0,14.0,68,0.00,,SKC,0.00,0.00,VWS V14.01,2013-08-13 06:40:00,
2013-08-13 01:44:00,81.2,69.6,29.64,SSE,154,10.0,11.0,68,0.00,,SKC,0.00,0.00,VWS V14.00,2013-08-13 06:44:00,
2013-08-13 01:49:00,81.1,70.0,29.63,SSE,154,4.0,11.0,69,0.00,,SKC,0.00,0.00,VWS V14.00,2013-08-13 06:49:00,
2013-08-13 01:50:00,81.0,69.9,29.64,SSE,154,12.0,12.0,69,0.00,,SKC,0.00,0.00,VWS V14.01,2013-08-13 06:50:00,
2013-08-13 01:54:00,81.0,69.9,29.63,SSE,153,5.0,12.0,69,0.00,,SKC,0.00,0.00,VWS V14.00,2013-08-13 06:54:00,
2013-08-13 01:59:00,80.9,69.8,29.64,SSE,153,5.0,12.0,69,0.00,,SKC,0.00,0.00,VWS V14.00,2013-08-13 06:59:00,
2013-08-13 02:00:00,80.8,70.1,29.63,SSE,153,4.0,12.0,70,0.00,,SKC,0.00,0.00,VWS V14.01,2013-08-13 07:00:00,
2013-08-13 02:04:00,80.7,70.0,29.63,SSE,153,4.0,10.0,70,0.00,,SKC,0.00,0.00,VWS V14.00,2013-08-13 07:04:00,
2013-08-13 02:09:00,80.6,69.9,29.64,SSE,153,1.0,10.0,70,0.00,,SKC,0.00,0.00,VWS V14.00,2013-08-13 07:09:00,
2013-08-13 02:10:00,80.6,69.9,29.63,SSE,153,2.0,10.0,70,0.00,,SKC,0.00,0.00,VWS V14.01,2013-08-13 07:10:00,
2013-08-13 02:14:00,80.5,69.8,29.64,SSE,153,7.0,8.0,70,0.00,,SKC,0.00,0.00,VWS V14.00,2013-08-13 07:14:00,
2013-08-13 02:19:00,80.4,70.1,29.64,SSE,153,1.0,9.0,71,0.00,,SKC,0.00,0.00,VWS V14.00,2013-08-13 07:19:00,
2013-08-13 02:20:00,80.4,70.1,29.64,SSE,153,7.0,9.0,71,0.00,,SKC,0.00,0.00,VWS V14.01,2013-08-13 07:20:00,
2013-08-13 02:24:00,80.4,70.1,29.64,SSE,153,2.0,11.0,71,0.00,,SKC,0.00,0.00,VWS V14.00,2013-08-13 07:24:00,
2013-08-13 02:29:00,80.3,70.1,29.65,SSE,153,4.0,11.0,71,0.00,,SKC,0.00,0.00,VWS V14.00,2013-08-13 07:29:00,
2013-08-13 02:30:00,80.3,70.5,29.65,SSE,153,10.0,11.0,72,0.00,,SKC,0.00,0.00,VWS V14.01,2013-08-13 07:30:00,
2013-08-13 02:34:00,80.3,70.5,29.65,SSE,153,1.0,9.0,72,0.00,,SKC,0.00,0.00,VWS V14.00,2013-08-13 07:34:00,
2013-08-13 02:39:00,80.2,70.4,29.64,SSE,153,0.0,9.0,72,0.00,,SKC,0.00,0.00,VWS V14.00,2013-08-13 07:39:00,
2013-08-13 02:40:00,80.1,70.3,29.65,SSE,153,6.0,9.0,72,0.00,,SKC,0.00,0.00,VWS V14.01,2013-08-13 07:40:00,
2013-08-13 02:44:00,80.1,70.3,29.64,SSE,157,5.0,12.0,72,0.00,,SKC,0.00,0.00,VWS V14.00,2013-08-13 07:44:00,
2013-08-13 02:49:00,80.0,70.6,29.65,SSE,157,4.0,13.0,73,0.00,,SKC,0.00,0.00,VWS V14.00,2013-08-13 07:49:00,
2013-08-13 02:50:00,80.0,70.6,29.65,SSE,157,4.0,13.0,73,0.00,,SKC,0.00,0.00,VWS V14.01,2013-08-13 07:50:00,
2013-08-13 02:54:00,79.9,70.5,29.65,SSE,153,10.0,10.0,73,0.00,,SKC,0.00,0.00,VWS V14.00,2013-08-13 07:54:00,
2013-08-13 02:59:00,79.8,70.4,29.65,SSE,154,7.0,12.0,73,0.00,,SKC,0.00,0.00,VWS V14.00,2013-08-13 07:59:00,
2013-08-13 03:00:00,79.8,70.4,29.65,SSE,155,0.0,12.0,73,0.00,,SKC,0.00,0.00,VWS V14.01,2013-08-13 08:00:00,
2013-08-13 03:04:00,79.7,70.3,29.65,SSE,155,2.0,5.0,73,0.00,,SKC,0.00,0.00,VWS V14.00,2013-08-13 08:04:00,
2013-08-13 03:09:00,79.7,70.7,29.66,SSE,155,2.0,7.0,74,0.00,,SKC,0.00,0.00,VWS V14.00,2013-08-13 08:09:00,
2013-08-13 03:10:00,79.6,70.6,29.65,SSE,154,2.0,7.0,74,0.00,,SKC,0.00,0.00,VWS V14.01,2013-08-13 08:10:00,
2013-08-13 03:14:00,79.6,70.6,29.65,SSE,154,4.0,6.0,74,0.00,,SKC,0.00,0.00,VWS V14.00,2013-08-13 08:14:00,
2013-08-13 03:19:00,79.4,70.4,29.65,SSE,154,4.0,9.0,74,0.00,,SKC,0.00,0.00,VWS V14.00,2013-08-13 08:19:00,
2013-08-13 03:20:00,79.4,70.4,29.65,SSE,154,0.0,9.0,74,0.00,,SKC,0.00,0.00,VWS V14.01,2013-08-13 08:20:00,
2013-08-13 03:24:00,79.4,70.4,29.65,SSE,154,7.0,7.0,74,0.00,,SKC,0.00,0.00,VWS V14.00,2013-08-13 08:24:00,
2013-08-13 03:29:00,79.2,70.2,29.65,SSE,154,4.0,8.0,74,0.00,,SKC,0.00,0.00,VWS V14.00,2013-08-13 08:29:00,
2013-08-13 03:30:00,79.2,70.2,29.65,SSE,155,0.0,8.0,74,0.00,,SKC,0.00,0.00,VWS V14.01,2013-08-13 08:30:00,
2013-08-13 03:34:00,79.1,70.1,29.65,SSE,154,5.0,7.0,74,0.00,,SKC,0.00,0.00,VWS V14.00,2013-08-13 08:34:00,
2013-08-13 03:39:00,79.0,70.0,29.65,SSE,154,2.0,8.0,74,0.00,,SKC,0.00,0.00,VWS V14.00,2013-08-13 08:39:00,
2013-08-13 03:40:00,79.0,70.0,29.65,SSE,154,2.0,8.0,74,0.00,,SKC,0.00,0.00,VWS V14.01,2013-08-13 08:40:00,
2013-08-13 03:44:00,78.9,69.9,29.64,SSE,154,10.0,11.0,74,0.00,,SKC,0.00,0.00,VWS V14.00,2013-08-13 08:44:00,
2013-08-13 03:49:00,78.9,69.9,29.64,SSE,154,0.0,11.0,74,0.00,,SKC,0.00,0.00,VWS V14.00,2013-08-13 08:49:00,
2013-08-13 03:50:00,78.8,69.8,29.64,SSE,155,8.0,11.0,74,0.00,,SKC,0.00,0.00,VWS V14.01,2013-08-13 08:50:00,
2013-08-13 03:54:00,78.8,69.8,29.64,SSE,155,0.0,8.0,74,0.00,,SKC,0.00,0.00,VWS V14.00,2013-08-13 08:54:00,
2013-08-13 03:59:00,78.7,69.7,29.65,SSE,155,1.0,8.0,74,0.00,,SKC,0.00,0.00,VWS V14.00,2013-08-13 08:59:00,
2013-08-13 04:00:00,78.7,69.7,29.65,SSE,154,6.0,11.0,74,0.00,,SKC,0.00,0.00,VWS V14.01,2013-08-13 09:00:00,
2013-08-13 04:04:00,78.7,69.7,29.65,SSE,154,4.0,6.0,74,0.00,,SKC,0.00,0.00,VWS V14.00,2013-08-13 09:04:00,
2013-08-13 04:09:00,78.6,69.6,29.65,SSE,154,8.0,9.0,74,0.00,,SKC,0.00,0.00,VWS V14.00,2013-08-13 09:09:00,
2013-08-13 04:10:00,78.6,69.6,29.65,SSE,154,7.0,9.0,74,0.00,,SKC,0.00,0.00,VWS V14.01,2013-08-13 09:10:00,
2013-08-13 04:14:00,78.6,69.6,29.65,SSE,154,2.0,7.0,74,0.00,,SKC,0.00,0.00,VWS V14.00,2013-08-13 09:14:00,
2013-08-13 04:19:00,78.5,69.5,29.65,SSE,154,5.0,11.0,74,0.00,,SKC,0.00,0.00,VWS V14.00,2013-08-13 09:19:00,
2013-08-13 04:20:00,78.5,69.5,29.65,SSE,154,2.0,11.0,74,0.00,,SKC,0.00,0.00,VWS V14.01,2013-08-13 09:20:00,
2013-08-13 04:24:00,78.4,69.4,29.65,SSE,154,2.0,5.0,74,0.00,,SKC,0.00,0.00,VWS V14.00,2013-08-13 09:24:00,
2013-08-13 04:29:00,78.4,69.4,29.65,SSE,154,2.0,6.0,74,0.00,,SKC,0.00,0.00,VWS V14.00,2013-08-13 09:29:00,
2013-08-13 04:30:00,78.3,69.3,29.65,SSE,154,1.0,6.0,74,0.00,,SKC,0.00,0.00,VWS V14.01,2013-08-13 09:30:00,
2013-08-13 04:34:00,78.3,69.3,29.65,SSE,154,0.0,2.0,74,0.00,,SKC,0.00,0.00,VWS V14.00,2013-08-13 09:34:00,
2013-08-13 04:39:00,78.1,69.5,29.64,SSE,154,4.0,7.0,75,0.00,,SKC,0.00,0.00,VWS V14.00,2013-08-13 09:39:00,
2013-08-13 04:40:00,78.0,69.4,29.64,SSE,154,7.0,7.0,75,0.00,,SKC,0.00,0.00,VWS V14.01,2013-08-13 09:40:00,
2013-08-13 04:44:00,78.0,69.4,29.64,SSE,154,6.0,10.0,75,0.00,,SKC,0.00,0.00,VWS V14.00,2013-08-13 09:44:00,
2013-08-13 04:49:00,77.9,69.3,29.64,SSE,154,2.0,10.0,75,0.00,,SKC,0.00,0.00,VWS V14.00,2013-08-13 09:49:00,
2013-08-13 04:50:00,77.8,69.2,29.64,SSE,154,2.0,10.0,75,0.00,,SKC,0.00,0.00,VWS V14.01,2013-08-13 09:50:00,
2013-08-13 04:54:00,77.8,69.2,29.64,SSE,154,2.0,8.0,75,0.00,,SKC,0.00,0.00,VWS V14.00,2013-08-13 09:54:00,
2013-08-13 04:59:00,77.7,69.2,29.64,SSE,154,4.0,10.0,75,0.00,,SKC,0.00,0.00,VWS V14.00,2013-08-13 09:59:00,
2013-08-13 05:00:00,77.6,69.1,29.64,SSE,154,0.0,10.0,75,0.00,,SKC,0.00,0.00,VWS V14.01,2013-08-13 10:00:00,
2013-08-13 05:04:00,77.6,69.1,29.64,SSE,154,5.0,6.0,75,0.00,,SKC,0.00,0.00,VWS V14.00,2013-08-13 10:04:00,
2013-08-13 05:09:00,77.5,69.0,29.64,SSE,154,4.0,9.0,75,0.00,,SKC,0.00,0.00,VWS V14.00,2013-08-13 10:09:00,
2013-08-13 05:10:00,77.4,68.9,29.64,SSE,154,1.0,9.0,75,0.00,,SKC,0.00,0.00,VWS V14.01,2013-08-13 10:10:00,
2013-08-13 05:14:00,77.4,68.9,29.64,SSE,154,0.0,2.0,75,0.00,,SKC,0.00,0.00,VWS V14.00,2013-08-13 10:14:00,
2013-08-13 05:19:00,77.3,68.8,29.64,SSE,154,4.0,6.0,75,0.00,,SKC,0.00,0.00,VWS V14.00,2013-08-13 10:19:00,
2013-08-13 05:20:00,77.3,68.8,29.64,SSE,154,4.0,6.0,75,0.00,,SKC,0.00,0.00,VWS V14.01,2013-08-13 10:20:00,
2013-08-13 05:24:00,77.3,69.2,29.64,SSE,154,0.0,5.0,76,0.00,,SKC,0.00,0.00,VWS V14.00,2013-08-13 10:24:00,
2013-08-13 05:29:00,77.2,69.1,29.64,SSE,154,4.0,7.0,76,0.00,,SKC,0.00,0.00,VWS V14.00,2013-08-13 10:29:00,
2013-08-13 05:30:00,77.1,69.0,29.64,SSE,154,0.0,7.0,76,0.00,,SKC,0.00,0.00,VWS V14.01,2013-08-13 10:30:00,
2013-08-13 05:34:00,77.1,69.0,29.64,SSE,154,1.0,6.0,76,0.00,,SKC,0.00,0.00,VWS V14.00,2013-08-13 10:34:00,
2013-08-13 05:39:00,77.0,68.9,29.64,SSE,154,4.0,9.0,76,0.00,,SKC,0.00,0.00,VWS V14.00,2013-08-13 10:39:00,
2013-08-13 05:40:00,77.0,68.9,29.64,SSE,154,1.0,9.0,76,0.00,,SKC,0.00,0.00,VWS V14.01,2013-08-13 10:40:00,
2013-08-13 05:44:00,76.9,68.8,29.64,SSE,154,4.0,7.0,76,0.00,,SKC,0.00,0.00,VWS V14.00,2013-08-13 10:44:00,
2013-08-13 05:49:00,76.9,68.8,29.64,SSE,154,6.0,7.0,76,0.00,,SKC,0.00,0.00,VWS V14.00,2013-08-13 10:49:00,
2013-08-13 05:50:00,76.8,68.7,29.64,SE,142,6.0,12.0,76,0.00,,SKC,0.00,0.00,VWS V14.01,2013-08-13 10:50:00,
2013-08-13 05:54:00,76.8,68.7,29.64,SE,142,4.0,6.0,76,0.00,,SKC,0.00,0.00,VWS V14.00,2013-08-13 10:54:00,
2013-08-13 05:59:00,76.7,68.6,29.64,SE,142,0.0,7.0,76,0.00,,SKC,0.00,0.00,VWS V14.00,2013-08-13 10:59:00,
2013-08-13 06:00:00,76.7,68.6,29.64,SE,142,0.0,7.0,76,0.00,,SKC,0.00,0.00,VWS V14.01,2013-08-13 11:00:00,
2013-08-13 06:04:00,76.7,68.6,29.64,SE,142,0.0,0.0,76,0.00,,SKC,0.00,0.00,VWS V14.00,2013-08-13 11:04:00,
2013-08-13 06:09:00,76.6,68.5,29.64,SE,142,4.0,7.0,76,0.00,,SKC,0.00,0.00,VWS V14.00,2013-08-13 11:09:00,
2013-08-13 06:10:00,76.6,68.5,29.64,SE,142,0.0,7.0,76,0.00,,SKC,0.00,0.00,VWS V14.01,2013-08-13 11:10:00,
2013-08-13 06:14:00,76.5,68.4,29.64,SE,142,0.0,5.0,76,0.00,,SKC,0.00,0.00,VWS V14.00,2013-08-13 11:14:00,
2013-08-13 06:19:00,76.4,68.7,29.64,SE,142,1.0,6.0,77,0.00,,SKC,0.00,0.00,VWS V14.00,2013-08-13 11:19:00,
2013-08-13 06:20:00,76.4,68.7,29.64,SE,142,2.0,6.0,77,0.00,,SKC,0.00,0.00,VWS V14.01,2013-08-13 11:20:00,
2013-08-13 06:24:00,76.4,68.7,29.64,SE,142,0.0,2.0,77,0.00,,SKC,0.00,0.00,VWS V14.00,2013-08-13 11:24:00,
2013-08-13 06:29:00,76.3,68.6,29.64,SE,142,1.0,8.0,77,0.00,,SKC,0.00,0.00,VWS V14.00,2013-08-13 11:29:00,
2013-08-13 06:30:00,76.2,68.5,29.64,SE,142,0.0,8.0,77,0.00,,SKC,0.00,0.00,VWS V14.01,2013-08-13 11:30:00,
2013-08-13 06:34:00,76.2,68.5,29.65,SE,142,0.0,5.0,77,0.00,,SKC,0.00,0.00,VWS V14.00,2013-08-13 11:34:00,
2013-08-13 06:39:00,76.1,68.4,29.65,SE,142,4.0,9.0,77,0.00,,SKC,0.00,0.00,VWS V14.00,2013-08-13 11:39:00,
2013-08-13 06:40:00,76.0,68.3,29.65,SE,142,4.0,9.0,77,0.00,,SKC,0.00,0.00,VWS V14.01,2013-08-13 11:40:00,
2013-08-13 06:44:00,76.0,68.3,29.65,SE,142,0.0,7.0,77,0.00,,SKC,0.00,0.00,VWS V14.00,2013-08-13 11:44:00,
2013-08-13 06:49:00,75.9,68.6,29.66,SE,142,4.0,7.0,78,0.00,,SKC,0.00,0.00,VWS V14.00,2013-08-13 11:49:00,
2013-08-13 06:50:00,75.8,68.5,29.66,SE,142,4.0,7.0,78,0.00,,SKC,0.00,0.00,VWS V14.01,2013-08-13 11:50:00,
2013-08-13 06:54:00,75.7,68.4,29.66,SE,142,1.0,7.0,78,0.00,,SKC,0.00,0.00,VWS V14.00,2013-08-13 11:54:00,
2013-08-13 06:59:00,75.7,68.4,29.66,SE,142,2.0,7.0,78,0.00,,SKC,0.00,0.00,VWS V14.00,2013-08-13 11:59:00,
2013-08-13 07:00:00,75.7,68.4,29.66,SE,142,1.0,7.0,78,0.00,,SKC,0.00,0.00,VWS V14.01,2013-08-13 12:00:00,
2013-08-13 07:04:00,75.6,68.3,29.66,SE,142,5.0,6.0,78,0.00,,SKC,0.00,5.00,VWS V14.00,2013-08-13 12:04:00,
2013-08-13 07:09:00,75.5,68.5,29.66,SE,142,0.0,6.0,79,0.00,,SKC,0.00,7.00,VWS V14.00,2013-08-13 12:09:00,
2013-08-13 07:10:00,75.4,68.4,29.66,SE,142,0.0,6.0,79,0.00,,SKC,0.00,9.00,VWS V14.01,2013-08-13 12:10:00,
2013-08-13 07:14:00,75.4,68.4,29.66,SE,142,2.0,7.0,79,0.00,,SKC,0.00,11.00,VWS V14.00,2013-08-13 12:14:00,
2013-08-13 07:19:00,75.3,68.7,29.66,SE,142,5.0,8.0,80,0.00,,SKC,0.00,12.00,VWS V14.00,2013-08-13 12:19:00,
2013-08-13 07:20:00,75.2,68.6,29.66,SE,142,5.0,8.0,80,0.00,,SKC,0.00,14.00,VWS V14.01,2013-08-13 12:20:00,
2013-08-13 07:24:00,75.2,68.6,29.67,SE,142,6.0,7.0,80,0.00,,SKC,0.00,16.00,VWS V14.00,2013-08-13 12:24:00,
2013-08-13 07:29:00,75.1,68.5,29.66,SE,142,4.0,9.0,80,0.00,,SKC,0.00,18.00,VWS V14.00,2013-08-13 12:29:00,
2013-08-13 07:30:00,75.1,68.5,29.66,SE,142,5.0,9.0,80,0.00,,SKC,0.00,18.00,VWS V14.01,2013-08-13 12:30:00,
2013-08-13 07:34:00,75.1,68.5,29.66,SE,142,4.0,9.0,80,0.00,,SKC,0.00,19.00,VWS V14.00,2013-08-13 12:34:00,
2013-08-13 07:39:00,75.0,68.8,29.66,SE,142,6.0,9.0,81,0.00,,SKC,0.00,21.00,VWS V14.00,2013-08-13 12:39:00,
2013-08-13 07:40:00,75.1,68.9,29.67,SE,142,4.0,9.0,81,0.00,,SKC,0.00,21.00,VWS V14.01,2013-08-13 12:40:00,
2013-08-13 07:44:00,75.1,68.9,29.67,SE,142,6.0,8.0,81,0.00,,SKC,0.00,23.00,VWS V14.00,2013-08-13 12:44:00,
2013-08-13 07:49:00,75.1,68.9,29.67,SE,142,4.0,11.0,81,0.00,,SKC,0.00,25.00,VWS V14.00,2013-08-13 12:49:00,
2013-08-13 07:50:00,75.1,68.9,29.67,SE,142,4.0,11.0,81,0.00,,SKC,0.00,25.00,VWS V14.01,2013-08-13 12:50:00,
2013-08-13 07:54:00,75.1,68.9,29.67,SE,142,6.0,7.0,81,0.00,,SKC,0.00,25.00,VWS V14.00,2013-08-13 12:54:00,
2013-08-13 07:59:00,75.2,69.0,29.67,SE,142,5.0,7.0,81,0.00,,SKC,0.00,26.00,VWS V14.00,2013-08-13 12:59:00,
2013-08-13 08:00:00,75.3,69.1,29.67,SE,142,5.0,7.0,81,0.00,,SKC,0.00,28.00,VWS V14.01,2013-08-13 13:00:00,
2013-08-13 08:04:00,75.3,69.1,29.67,SE,142,1.0,5.0,81,0.00,,SKC,0.00,28.00,VWS V14.00,2013-08-13 13:04:00,
2013-08-13 08:09:00,75.5,69.3,29.67,SE,142,6.0,9.0,81,0.00,,SKC,0.00,141.00,VWS V14.00,2013-08-13 13:09:00,
2013-08-13 08:10:00,75.6,69.0,29.67,SE,142,4.0,9.0,80,0.00,,SKC,0.00,156.00,VWS V14.01,2013-08-13 13:10:00,
2013-08-13 08:14:00,75.7,69.1,29.67,SE,142,6.0,7.0,80,0.00,,SKC,0.00,167.00,VWS V14.00,2013-08-13 13:14:00,
2013-08-13 08:19:00,76.0,69.0,29.67,SE,142,9.0,12.0,79,0.00,,SKC,0.00,188.00,VWS V14.00,2013-08-13 13:19:00,
2013-08-13 08:20:00,76.3,68.9,29.67,SE,142,7.0,12.0,78,0.00,,SKC,0.00,199.00,VWS V14.01,2013-08-13 13:20:00,
2013-08-13 08:24:00,76.4,69.0,29.67,SE,142,9.0,9.0,78,0.00,,SKC,0.00,209.00,VWS V14.00,2013-08-13 13:24:00,
2013-08-13 08:29:00,76.8,69.1,29.67,SE,142,6.0,11.0,77,0.00,,SKC,0.00,227.00,VWS V14.00,2013-08-13 13:29:00,
2013-08-13 08:30:00,77.0,68.9,29.67,SE,142,7.0,11.0,76,0.00,,SKC,0.00,236.00,VWS V14.01,2013-08-13 13:30:00,
2013-08-13 08:34:00,77.1,69.0,29.67,SE,146,1.0,12.0,76,0.00,,SKC,0.00,241.00,VWS V14.00,2013-08-13 13:34:00,
2013-08-13 08:39:00,77.5,69.0,29.68,SE,146,8.0,12.0,75,0.00,,SKC,0.00,260.00,VWS V14.00,2013-08-13 13:39:00,
2013-08-13 08:40:00,77.7,68.8,29.67,SE,146,2.0,12.0,74,0.00,,SKC,0.00,269.00,VWS V14.01,2013-08-13 13:40:00,
2013-08-13 08:44:00,77.9,68.9,29.67,SE,146,2.0,10.0,74,0.00,,SKC,0.00,278.00,VWS V14.00,2013-08-13 13:44:00,
2013-08-13 08:49:00,78.4,68.6,29.67,SE,146,6.0,13.0,72,0.00,,SKC,0.00,295.00,VWS V14.00,2013-08-13 13:49:00,
2013-08-13 08:50:00,78.6,68.4,29.67,SSE,147,10.0,13.0,71,0.00,,SKC,0.00,306.00,VWS V14.01,2013-08-13 13:50:00,
2013-08-13 08:54:00,78.7,68.5,29.67,SE,146,4.0,10.0,71,0.00,,SKC,0.00,315.00,VWS V14.00,2013-08-13 13:54:00,
2013-08-13 08:59:00,79.1,68.5,29.67,SSE,157,11.0,13.0,70,0.00,,SKC,0.00,332.00,VWS V14.00,2013-08-13 13:59:00,
2013-08-13 09:00:00,79.3,68.3,29.67,SSE,157,5.0,13.0,69,0.00,,SKC,0.00,341.00,VWS V14.01,2013-08-13 14:00:00,
2013-08-13 09:04:00,79.5,68.4,29.67,SSE,157,7.0,8.0,69,0.00,,SKC,0.00,350.00,VWS V14.00,2013-08-13 14:04:00,
2013-08-13 09:09:00,80.1,68.6,29.67,SSE,157,4.0,10.0,68,0.00,,SKC,0.00,364.00,VWS V14.00,2013-08-13 14:09:00,
2013-08-13 09:10:00,80.4,68.4,29.67,SSE,157,2.0,11.0,67,0.00,,SKC,0.00,378.00,VWS V14.01,2013-08-13 14:10:00,
2013-08-13 09:14:00,80.6,68.2,29.67,SSE,157,10.0,12.0,66,0.00,,SKC,0.00,383.00,VWS V14.00,2013-08-13 14:14:00,
2013-08-13 09:19:00,81.1,67.8,29.67,South,189,3.0,15.0,64,0.00,,SKC,0.00,403.00,VWS V14.00,2013-08-13 14:19:00,
2013-08-13 09:20:00,81.2,67.9,29.68,South,189,4.0,15.0,64,0.00,,SKC,0.00,411.00,VWS V14.01,2013-08-13 14:20:00,
2013-08-13 09:24:00,81.4,68.1,29.67,SSW,207,12.0,16.0,64,0.00,,SKC,0.00,420.00,VWS V14.00,2013-08-13 14:24:00,
2013-08-13 09:29:00,81.6,67.8,29.68,SSW,210,5.0,16.0,63,0.00,,SKC,0.00,436.00,VWS V14.00,2013-08-13 14:29:00,
2013-08-13 09:30:00,81.7,67.9,29.68,SSW,210,4.0,16.0,63,0.00,,SKC,0.00,443.00,VWS V14.01,2013-08-13 14:30:00,
2013-08-13 09:34:00,81.8,67.5,29.68,SSW,211,8.0,14.0,62,0.00,,SKC,0.00,454.00,VWS V14.00,2013-08-13 14:34:00,
2013-08-13 09:39:00,82.1,67.3,29.68,SSW,200,5.0,14.0,61,0.00,,SKC,0.00,468.00,VWS V14.00,2013-08-13 14:39:00,
2013-08-13 09:40:00,82.4,67.6,29.68,SSW,212,17.0,17.0,61,0.00,,SKC,0.00,478.00,VWS V14.01,2013-08-13 14:40:00,
2013-08-13 09:44:00,82.6,67.3,29.68,SW,221,5.0,18.0,60,0.00,,SKC,0.00,483.00,VWS V14.00,2013-08-13 14:44:00,
2013-08-13 09:49:00,82.8,67.0,29.68,SW,223,8.0,18.0,59,0.00,,SKC,0.00,501.00,VWS V14.00,2013-08-13 14:49:00,
2013-08-13 09:50:00,83.1,66.8,29.67,SW,223,11.0,18.0,58,0.00,,SKC,0.00,508.00,VWS V14.01,2013-08-13 14:50:00,
2013-08-13 09:54:00,83.2,66.9,29.68,SW,225,10.0,15.0,58,0.00,,SKC,0.00,519.00,VWS V14.00,2013-08-13 14:54:00,
2013-08-13 09:59:00,83.7,67.4,29.68,SW,221,8.0,15.0,58,0.00,,SKC,0.00,533.00,VWS V14.00,2013-08-13 14:59:00,
2013-08-13 10:00:00,84.0,67.1,29.68,SW,217,5.0,15.0,57,0.00,,SKC,0.00,543.00,VWS V14.01,2013-08-13 15:00:00,
2013-08-13 10:04:00,84.2,66.8,29.68,SW,214,9.0,12.0,56,0.00,,SKC,0.00,550.00,VWS V14.00,2013-08-13 15:04:00,
2013-08-13 10:09:00,84.5,66.1,29.68,SW,217,9.0,12.0,54,0.00,,SKC,0.00,568.00,VWS V14.00,2013-08-13 15:09:00,
2013-08-13 10:10:00,84.7,66.2,29.68,SW,219,9.0,13.0,54,0.00,,SKC,0.00,577.00,VWS V14.01,2013-08-13 15:10:00,
2013-08-13 10:14:00,84.8,66.3,29.68,SW,217,2.0,9.0,54,0.00,,SKC,0.00,582.00,VWS V14.00,2013-08-13 15:14:00,
2013-08-13 10:19:00,85.4,66.3,29.68,SW,217,6.0,9.0,53,0.00,,SKC,0.00,598.00,VWS V14.00,2013-08-13 15:19:00,
2013-08-13 10:20:00,85.7,66.1,29.68,South,175,5.0,18.0,52,0.00,,SKC,0.00,608.00,VWS V14.01,2013-08-13 15:20:00,
2013-08-13 10:24:00,85.7,66.1,29.69,South,178,6.0,14.0,52,0.00,,SKC,0.00,612.00,VWS V14.00,2013-08-13 15:24:00,
2013-08-13 10:29:00,85.9,66.2,29.68,South,186,2.0,14.0,52,0.00,,SKC,0.00,629.00,VWS V14.00,2013-08-13 15:29:00,
2013-08-13 10:30:00,86.1,65.9,29.69,South,186,5.0,14.0,51,0.00,,SKC,0.00,636.00,VWS V14.01,2013-08-13 15:30:00,
2013-08-13 10:34:00,86.2,66.0,29.68,South,186,8.0,11.0,51,0.00,,SKC,0.00,643.00,VWS V14.00,2013-08-13 15:34:00,
2013-08-13 10:39:00,86.7,65.9,29.68,South,185,5.0,11.0,50,0.00,,SKC,0.00,657.00,VWS V14.00,2013-08-13 15:39:00,
2013-08-13 10:40:00,86.9,66.0,29.68,South,186,9.0,11.0,50,0.00,,SKC,0.00,664.00,VWS V14.01,2013-08-13 15:40:00,
2013-08-13 10:44:00,87.1,66.2,29.68,South,187,5.0,10.0,50,0.00,,SKC,0.00,673.00,VWS V14.00,2013-08-13 15:44:00,
2013-08-13 10:49:00,87.4,65.3,29.68,South,175,6.0,15.0,48,0.00,,SKC,0.00,684.00,VWS V14.00,2013-08-13 15:49:00,
2013-08-13 10:50:00,87.6,65.5,29.69,South,178,8.0,15.0,48,0.00,,SKC,0.00,694.00,VWS V14.01,2013-08-13 15:50:00,
2013-08-13 10:54:00,87.7,65.6,29.68,South,182,7.0,12.0,48,0.00,,SKC,0.00,698.00,VWS V14.00,2013-08-13 15:54:00,
2013-08-13 10:59:00,88.1,65.3,29.69,South,182,7.0,12.0,47,0.00,,SKC,0.00,714.00,VWS V14.00,2013-08-13 15:59:00,
2013-08-13 11:00:00,88.4,65.6,29.69,South,179,5.0,12.0,47,0.00,,SKC,0.00,719.00,VWS V14.01,2013-08-13 16:00:00,
2013-08-13 11:04:00,88.6,65.2,29.69,South,180,4.0,11.0,46,0.00,,SKC,0.00,726.00,VWS V14.00,2013-08-13 16:04:00,
2013-08-13 11:09:00,88.8,65.4,29.69,South,185,4.0,12.0,46,0.00,,SKC,0.00,740.00,VWS V14.00,2013-08-13 16:09:00,
2013-08-13 11:10:00,88.8,64.7,29.69,South,184,4.0,12.0,45,0.00,,SKC,0.00,745.00,VWS V14.01,2013-08-13 16:10:00,
2013-08-13 11:14:00,88.9,64.8,29.68,South,170,4.0,16.0,45,0.00,,SKC,0.00,751.00,VWS V14.00,2013-08-13 16:14:00,
2013-08-13 11:19:00,89.1,65.0,29.69,SSE,167,9.0,17.0,45,0.00,,SKC,0.00,765.00,VWS V14.00,2013-08-13 16:19:00,
2013-08-13 11:20:00,89.2,64.5,29.69,SSE,167,7.0,17.0,44,0.00,,SKC,0.00,773.00,VWS V14.01,2013-08-13 16:20:00,
2013-08-13 11:24:00,89.2,64.5,29.69,SSE,167,7.0,14.0,44,0.00,,SKC,0.00,777.00,VWS V14.00,2013-08-13 16:24:00,
2013-08-13 11:29:00,89.3,63.9,29.69,SSE,166,10.0,14.0,43,0.00,,SKC,0.00,789.00,VWS V14.00,2013-08-13 16:29:00,
2013-08-13 11:30:00,89.5,64.1,29.68,SSE,166,11.0,14.0,43,0.00,,SKC,0.00,793.00,VWS V14.01,2013-08-13 16:30:00,
2013-08-13 11:34:00,89.6,64.2,29.69,SSE,167,7.0,11.0,43,0.00,,SKC,0.00,798.00,VWS V14.00,2013-08-13 16:34:00,
2013-08-13 11:38:00,90.1,63.9,29.68,South,170,7.0,13.0,42,0.00,,SKC,0.00,810.00,VWS V14.00,2013-08-13 16:38:00,
2013-08-13 11:40:00,90.3,64.1,29.68,South,170,7.0,13.0,42,0.00,,SKC,0.00,814.00,VWS V14.01,2013-08-13 16:40:00,
2013-08-13 11:44:00,90.5,64.3,29.68,South,170,6.0,9.0,42,0.00,,SKC,0.00,819.00,VWS V14.00,2013-08-13 16:44:00,
2013-08-13 11:49:00,90.8,65.2,29.69,South,170,4.0,9.0,43,0.00,,SKC,0.00,826.00,VWS V14.00,2013-08-13 16:49:00,
2013-08-13 11:50:00,91.1,65.5,29.69,South,170,6.0,10.0,43,0.00,,SKC,0.00,830.00,VWS V14.01,2013-08-13 16:50:00,
2013-08-13 11:54:00,91.3,65.0,29.68,South,170,5.0,8.0,42,0.00,,SKC,0.00,835.00,VWS V14.00,2013-08-13 16:54:00,
2013-08-13 11:59:00,91.6,64.6,29.68,South,169,0.0,11.0,41,0.00,,SKC,0.00,846.00,VWS V14.00,2013-08-13 16:59:00,
2013-08-13 12:00:00,91.6,64.6,29.68,South,169,0.0,11.0,41,0.00,,SKC,0.00,851.00,VWS V14.01,2013-08-13 17:00:00,
2013-08-13 12:03:00,91.8,64.8,29.68,South,169,8.0,10.0,41,0.00,,SKC,0.00,858.00,VWS V14.00,2013-08-13 17:03:00,
2013-08-13 12:08:00,92.3,64.5,29.67,South,169,5.0,11.0,40,0.00,,SKC,0.00,867.00,VWS V14.00,2013-08-13 17:08:00,
2013-08-13 12:10:00,92.5,63.2,29.68,SSE,167,6.0,14.0,38,0.00,,SKC,0.00,872.00,VWS V14.01,2013-08-13 17:10:00,
2013-08-13 12:13:00,92.4,63.9,29.68,SSE,167,4.0,9.0,39,0.00,,SKC,0.00,875.00,VWS V14.00,2013-08-13 17:13:00,
2013-08-13 12:18:00,92.6,63.3,29.68,SSE,166,11.0,13.0,38,0.00,,SKC,0.00,882.00,VWS V14.00,2013-08-13 17:18:00,
2013-08-13 12:20:00,92.6,63.3,29.68,SSE,165,9.0,15.0,38,0.00,,SKC,0.00,884.00,VWS V14.01,2013-08-13 17:20:00,
2013-08-13 12:23:00,92.5,64.0,29.68,SSE,165,4.0,9.0,39,0.00,,SKC,0.00,884.00,VWS V14.00,2013-08-13 17:23:00,
2013-08-13 12:28:00,93.0,64.4,29.68,South,173,5.0,14.0,39,0.00,,SKC,0.00,896.00,VWS V14.00,2013-08-13 17:28:00,
2013-08-13 12:30:00,93.4,64.8,29.67,South,173,7.0,14.0,39,0.00,,SKC,0.00,896.00,VWS V14.01,2013-08-13 17:30:00,
2013-08-13 12:33:00,93.6,64.2,29.67,South,173,0.0,7.0,38,0.00,,SKC,0.00,896.00,VWS V14.00,2013-08-13 17:33:00,
2013-08-13 12:38:00,94.2,63.2,29.67,South,175,5.0,14.0,36,0.00,,SKC,0.00,907.00,VWS V14.00,2013-08-13 17:38:00,
2013-08-13 12:40:00,94.2,63.2,29.67,South,170,5.0,16.0,36,0.00,,SKC,0.00,912.00,VWS V14.01,2013-08-13 17:40:00,
2013-08-13 12:43:00,94.1,62.3,29.67,South,170,9.0,10.0,35,0.00,,SKC,0.00,914.00,VWS V14.00,2013-08-13 17:43:00,
2013-08-13 12:48:00,94.0,63.0,29.67,South,169,6.0,13.0,36,0.00,,SKC,0.00,921.00,VWS V14.00,2013-08-13 17:48:00,
2013-08-13 12:50:00,93.9,62.9,29.67,South,169,4.0,13.0,36,0.00,,SKC,0.00,925.00,VWS V14.01,2013-08-13 17:50:00,
2013-08-13 12:53:00,94.1,63.9,29.67,South,170,4.0,11.0,37,0.00,,SKC,0.00,919.00,VWS V14.00,2013-08-13 17:53:00,
2013-08-13 12:58:00,94.7,63.6,29.66,South,170,0.0,11.0,36,0.00,,SKC,0.00,928.00,VWS V14.00,2013-08-13 17:58:00,
2013-08-13 13:00:00,94.7,63.6,29.67,SSE,167,5.0,15.0,36,0.00,,SKC,0.00,928.00,VWS V14.01,2013-08-13 18:00:00,
2013-08-13 13:03:00,94.9,63.8,29.66,SSE,167,7.0,7.0,36,0.00,,SKC,0.00,932.00,VWS V14.00,2013-08-13 18:03:00,
2013-08-13 13:08:00,95.0,63.1,29.66,SSE,164,7.0,13.0,35,0.00,,SKC,0.00,937.00,VWS V14.00,2013-08-13 18:08:00,
2013-08-13 13:10:00,94.8,62.9,29.66,SSE,165,7.0,13.0,35,0.00,,SKC,0.00,935.00,VWS V14.01,2013-08-13 18:10:00,
2013-08-13 13:13:00,95.0,61.4,29.66,SSE,165,6.0,12.0,33,0.00,,SKC,0.00,939.00,VWS V14.00,2013-08-13 18:13:00,
2013-08-13 13:18:00,95.1,62.3,29.66,SSE,165,6.0,13.0,34,0.00,,SKC,0.00,942.00,VWS V14.00,2013-08-13 18:18:00,
2013-08-13 13:20:00,95.3,62.5,29.66,SSE,165,10.0,13.0,34,0.00,,SKC,0.00,942.00,VWS V14.01,2013-08-13 18:20:00,
2013-08-13 13:23:00,95.3,62.5,29.66,SSE,165,5.0,13.0,34,0.00,,SKC,0.00,944.00,VWS V14.00,2013-08-13 18:23:00,
2013-08-13 13:28:00,95.7,62.9,29.65,SSE,165,0.0,13.0,34,0.00,,SKC,0.00,946.00,VWS V14.00,2013-08-13 18:28:00,
2013-08-13 13:30:00,95.9,62.2,29.65,SSE,165,0.0,13.0,33,0.00,,SKC,0.00,944.00,VWS V14.01,2013-08-13 18:30:00,
2013-08-13 13:33:00,96.0,63.1,29.65,SSE,165,5.0,10.0,34,0.00,,SKC,0.00,944.00,VWS V14.00,2013-08-13 18:33:00,
2013-08-13 13:38:00,96.1,63.2,29.65,SSE,166,7.0,10.0,34,0.00,,SKC,0.00,949.00,VWS V14.00,2013-08-13 18:38:00,
2013-08-13 13:40:00,96.2,63.3,29.65,SSE,165,6.0,12.0,34,0.00,,SKC,0.00,942.00,VWS V14.01,2013-08-13 18:40:00,
2013-08-13 13:43:00,96.3,63.4,29.64,SSE,165,2.0,7.0,34,0.00,,SKC,0.00,942.00,VWS V14.00,2013-08-13 18:43:00,
2013-08-13 13:48:00,96.1,63.2,29.64,SSE,165,1.0,13.0,34,0.00,,SKC,0.00,965.00,VWS V14.00,2013-08-13 18:48:00,
2013-08-13 13:50:00,96.2,63.3,29.64,SSE,165,5.0,13.0,34,0.00,,SKC,0.00,954.00,VWS V14.01,2013-08-13 18:50:00,
2013-08-13 13:53:00,96.4,63.5,29.64,SSE,165,4.0,8.0,34,0.00,,SKC,0.00,960.00,VWS V14.00,2013-08-13 18:53:00,
2013-08-13 13:58:00,96.5,63.6,29.64,SSE,165,6.0,11.0,34,0.00,,SKC,0.00,918.00,VWS V14.00,2013-08-13 18:58:00,
2013-08-13 14:00:00,96.4,63.5,29.63,SSE,166,6.0,11.0,34,0.00,,SKC,0.00,1004.00,VWS V14.01,2013-08-13 19:00:00,
2013-08-13 14:03:00,96.5,62.7,29.63,South,181,10.0,12.0,33,0.00,,SKC,0.00,930.00,VWS V14.00,2013-08-13 19:03:00,
2013-08-13 14:08:00,96.7,62.0,29.63,South,178,7.0,12.0,32,0.00,,SKC,0.00,1004.00,VWS V14.00,2013-08-13 19:08:00,
2013-08-13 14:10:00,96.7,62.0,29.63,South,178,0.0,12.0,32,0.00,,SKC,0.00,1004.00,VWS V14.01,2013-08-13 19:10:00,
2013-08-13 14:13:00,96.7,61.1,29.63,South,179,7.0,10.0,31,0.00,,SKC,0.00,981.00,VWS V14.00,2013-08-13 19:13:00,
2013-08-13 14:18:00,96.9,60.4,29.63,South,180,10.0,12.0,30,0.00,,SKC,0.00,958.00,VWS V14.00,2013-08-13 19:18:00,
2013-08-13 14:20:00,97.0,60.5,29.62,South,180,6.0,12.0,30,0.00,,SKC,0.00,953.00,VWS V14.01,2013-08-13 19:20:00,
2013-08-13 14:23:00,96.9,61.3,29.62,South,180,4.0,9.0,31,0.00,,SKC,0.00,953.00,VWS V14.00,2013-08-13 19:23:00,
2013-08-13 14:28:00,97.1,61.5,29.62,South,175,6.0,13.0,31,0.00,,SKC,0.00,951.00,VWS V14.00,2013-08-13 19:28:00,
2013-08-13 14:30:00,96.8,61.2,29.61,South,175,1.0,13.0,31,0.00,,SKC,0.00,958.00,VWS V14.01,2013-08-13 19:30:00,
2013-08-13 14:33:00,96.7,62.0,29.61,South,175,0.0,6.0,32,0.00,,SKC,0.00,951.00,VWS V14.00,2013-08-13 19:33:00,
2013-08-13 14:38:00,96.9,62.2,29.61,South,175,9.0,10.0,32,0.00,,SKC,0.00,965.00,VWS V14.00,2013-08-13 19:38:00,
2013-08-13 14:40:00,97.4,61.7,29.61,South,175,8.0,12.0,31,0.00,,SKC,0.00,882.00,VWS V14.01,2013-08-13 19:40:00,
2013-08-13 14:43:00,97.6,61.9,29.61,South,175,6.0,8.0,31,0.00,,SKC,0.00,1014.00,VWS V14.00,2013-08-13 19:43:00,
2013-08-13 14:48:00,97.4,61.7,29.60,South,175,1.0,8.0,31,0.00,,SKC,0.00,178.00,VWS V14.00,2013-08-13 19:48:00,
2013-08-13 14:50:00,97.7,61.0,29.60,South,175,6.0,8.0,30,0.00,,SKC,0.00,963.00,VWS V14.01,2013-08-13 19:50:00,
2013-08-13 14:53:00,98.1,60.4,29.60,South,175,2.0,9.0,29,0.00,,SKC,0.00,972.00,VWS V14.00,2013-08-13 19:53:00,
2013-08-13 14:58:00,98.8,61.0,29.59,South,174,12.0,13.0,29,0.00,,SKC,0.00,944.00,VWS V14.00,2013-08-13 19:58:00,
2013-08-13 15:00:00,98.7,61.0,29.59,South,174,4.0,13.0,29,0.00,,SKC,0.00,935.00,VWS V14.01,2013-08-13 20:00:00,
2013-08-13 15:03:00,98.8,61.0,29.59,South,174,1.0,6.0,29,0.00,,SKC,0.00,923.00,VWS V14.00,2013-08-13 20:03:00,
2013-08-13 15:08:00,99.0,61.2,29.59,SSW,211,5.0,16.0,29,0.00,,SKC,0.00,923.00,VWS V14.00,2013-08-13 20:08:00,
2013-08-13 15:10:00,99.2,60.4,29.59,SSW,211,12.0,16.0,28,0.00,,SKC,0.00,926.00,VWS V14.01,2013-08-13 20:10:00,
2013-08-13 15:13:00,99.3,60.5,29.59,SSW,211,9.0,9.0,28,0.00,,SKC,0.00,928.00,VWS V14.00,2013-08-13 20:13:00,
2013-08-13 15:18:00,99.3,60.5,29.59,SSW,211,6.0,9.0,28,0.00,,SKC,0.00,914.00,VWS V14.00,2013-08-13 20:18:00,
2013-08-13 15:20:00,99.4,59.5,29.58,SSW,204,5.0,11.0,27,0.00,,SKC,0.00,896.00,VWS V14.01,2013-08-13 20:20:00,
2013-08-13 15:23:00,99.2,59.4,29.58,SSW,204,3.0,6.0,27,0.00,,SKC,0.00,893.00,VWS V14.00,2013-08-13 20:23:00,
2013-08-13 15:28:00,99.5,59.6,29.58,SSW,205,4.0,10.0,27,0.00,,SKC,0.00,879.00,VWS V14.00,2013-08-13 20:28:00,
2013-08-13 15:30:00,99.7,59.8,29.58,SSW,205,3.0,10.0,27,0.00,,SKC,0.00,874.00,VWS V14.01,2013-08-13 20:30:00,
2013-08-13 15:33:00,99.7,59.8,29.58,SSW,205,8.0,8.0,27,0.00,,SKC,0.00,872.00,VWS V14.00,2013-08-13 20:33:00,
2013-08-13 15:38:00,99.8,56.6,29.58,SSW,199,5.0,10.0,24,0.00,,SKC,0.00,863.00,VWS V14.00,2013-08-13 20:38:00,
2013-08-13 15:40:00,99.9,57.8,29.57,SSW,199,9.0,10.0,25,0.00,,SKC,0.00,860.00,VWS V14.01,2013-08-13 20:40:00,
2013-08-13 15:43:00,100.0,57.9,29.58,SSW,199,6.0,9.0,25,0.00,,SKC,0.00,854.00,VWS V14.00,2013-08-13 20:43:00,
2013-08-13 15:48:00,100.2,58.1,29.57,SSW,199,0.0,9.0,25,0.00,,SKC,0.00,840.00,VWS V14.00,2013-08-13 20:48:00,
2013-08-13 15:50:00,100.3,59.2,29.57,SSW,199,0.0,9.0,26,0.00,,SKC,0.00,833.00,VWS V14.01,2013-08-13 20:50:00,
2013-08-13 15:53:00,100.5,59.4,29.57,SSW,199,5.0,5.0,26,0.00,,SKC,0.00,831.00,VWS V14.00,2013-08-13 20:53:00,
2013-08-13 15:58:00,100.5,59.4,29.56,SSW,202,0.0,11.0,26,0.00,,SKC,0.00,819.00,VWS V14.00,2013-08-13 20:58:00,
2013-08-13 16:00:00,100.7,59.6,29.56,SSW,202,1.0,11.0,26,0.00,,SKC,0.00,814.00,VWS V14.01,2013-08-13 21:00:00,
2013-08-13 16:03:00,100.7,58.5,29.56,SSW,198,6.0,12.0,25,0.00,,SKC,0.00,814.00,VWS V14.00,2013-08-13 21:03:00,
2013-08-13 16:08:00,100.4,58.2,29.56,SSW,198,6.0,12.0,25,0.00,,SKC,0.00,800.00,VWS V14.00,2013-08-13 21:08:00,
2013-08-13 16:10:00,100.3,57.0,29.56,SSW,198,4.0,12.0,24,0.00,,SKC,0.00,800.00,VWS V14.01,2013-08-13 21:10:00,
2013-08-13 16:13:00,100.4,57.1,29.56,SSW,198,1.0,6.0,24,0.00,,SKC,0.00,789.00,VWS V14.00,2013-08-13 21:13:00,
2013-08-13 16:18:00,100.3,58.2,29.55,SSW,198,4.0,11.0,25,0.00,,SKC,0.00,779.00,VWS V14.00,2013-08-13 21:18:00,
2013-08-13 16:20:00,100.5,58.3,29.55,SSW,198,5.0,11.0,25,0.00,,SKC,0.00,775.00,VWS V14.01,2013-08-13 21:20:00,
2013-08-13 16:23:00,100.6,57.3,29.55,SSW,198,5.0,6.0,24,0.00,,SKC,0.00,770.00,VWS V14.00,2013-08-13 21:23:00,
2013-08-13 16:28:00,100.7,57.3,29.55,SSW,200,4.0,9.0,24,0.00,,SKC,0.00,675.00,VWS V14.00,2013-08-13 21:28:00,
2013-08-13 16:30:00,100.6,57.3,29.54,SSW,200,2.0,9.0,24,0.00,,SKC,0.00,751.00,VWS V14.01,2013-08-13 21:30:00,
2013-08-13 16:33:00,100.5,57.2,29.55,SSW,200,3.0,6.0,24,0.00,,SKC,0.00,766.00,VWS V14.00,2013-08-13 21:33:00,
2013-08-13 16:38:00,100.2,56.9,29.55,SSW,199,0.0,8.0,24,0.00,,SKC,0.00,197.00,VWS V14.00,2013-08-13 21:38:00,
2013-08-13 16:40:00,100.0,56.8,29.54,SSW,199,0.0,8.0,24,0.00,,SKC,0.00,717.00,VWS V14.01,2013-08-13 21:40:00,
2013-08-13 16:43:00,100.1,56.8,29.54,SSW,199,3.0,3.0,24,0.00,,SKC,0.00,707.00,VWS V14.00,2013-08-13 21:43:00,
2013-08-13 16:48:00,100.5,58.3,29.54,SSW,202,8.0,10.0,25,0.00,,SKC,0.00,694.00,VWS V14.00,2013-08-13 21:48:00,
2013-08-13 16:50:00,100.5,57.2,29.54,SSW,202,5.0,10.0,24,0.00,,SKC,0.00,693.00,VWS V14.01,2013-08-13 21:50:00,
2013-08-13 16:53:00,100.6,58.4,29.54,SSW,202,7.0,8.0,25,0.00,,SKC,0.00,687.00,VWS V14.00,2013-08-13 21:53:00,
2013-08-13 16:58:00,100.5,58.3,29.53,SSW,202,0.0,9.0,25,0.00,,SKC,0.00,663.00,VWS V14.00,2013-08-13 21:58:00,
2013-08-13 17:00:00,100.5,58.3,29.53,SSW,202,5.0,9.0,25,0.00,,SKC,0.00,652.00,VWS V14.01,2013-08-13 22:00:00,
2013-08-13 17:03:00,100.4,58.2,29.53,SSW,202,6.0,7.0,25,0.00,,SKC,0.00,645.00,VWS V14.00,2013-08-13 22:03:00,
2013-08-13 17:08:00,100.3,57.0,29.53,SSW,202,1.0,9.0,24,0.00,,SKC,0.00,629.00,VWS V14.00,2013-08-13 22:08:00,
2013-08-13 17:10:00,100.4,58.2,29.53,SSW,202,4.0,9.0,25,0.00,,SKC,0.00,619.00,VWS V14.01,2013-08-13 22:10:00,
2013-08-13 17:13:00,100.3,57.0,29.53,SSW,202,2.0,4.0,24,0.00,,SKC,0.00,615.00,VWS V14.00,2013-08-13 22:13:00,
2013-08-13 17:18:00,100.3,58.2,29.53,SSW,202,2.0,6.0,25,0.00,,SKC,0.00,601.00,VWS V14.00,2013-08-13 22:18:00,
2013-08-13 17:20:00,100.4,59.3,29.53,SSW,202,3.0,6.0,26,0.00,,SKC,0.00,592.00,VWS V14.01,2013-08-13 22:20:00,
2013-08-13 17:23:00,100.5,59.4,29.53,South,180,14.0,14.0,26,0.00,,SKC,0.00,585.00,VWS V14.00,2013-08-13 22:23:00,
2013-08-13 17:28:00,100.3,59.2,29.53,South,178,4.0,14.0,26,0.00,,SKC,0.00,573.00,VWS V14.00,2013-08-13 22:28:00,
2013-08-13 17:30:00,100.5,59.4,29.53,South,178,2.0,14.0,26,0.00,,SKC,0.00,563.00,VWS V14.01,2013-08-13 22:30:00,
2013-08-13 17:33:00,100.6,58.4,29.53,South,178,4.0,6.0,25,0.00,,SKC,0.00,554.00,VWS V14.00,2013-08-13 22:33:00,
2013-08-13 17:38:00,100.7,58.5,29.52,South,179,2.0,10.0,25,0.00,,SKC,0.00,543.00,VWS V14.00,2013-08-13 22:38:00,
2013-08-13 17:40:00,100.8,58.6,29.53,South,178,0.0,10.0,25,0.00,,SKC,0.00,529.00,VWS V14.01,2013-08-13 22:40:00,
2013-08-13 17:43:00,100.8,58.6,29.52,South,179,0.0,0.0,25,0.00,,SKC,0.00,524.00,VWS V14.00,2013-08-13 22:43:00,
2013-08-13 17:48:00,100.9,58.7,29.52,South,178,4.0,7.0,25,0.00,,SKC,0.00,504.00,VWS V14.00,2013-08-13 22:48:00,
2013-08-13 17:50:00,100.5,58.3,29.52,South,178,6.0,8.0,25,0.00,,SKC,0.00,499.00,VWS V14.01,2013-08-13 22:50:00,
2013-08-13 17:53:00,100.5,58.3,29.52,South,178,7.0,9.0,25,0.00,,SKC,0.00,487.00,VWS V14.00,2013-08-13 22:53:00,
2013-08-13 17:58:00,100.4,59.3,29.52,South,178,4.0,9.0,26,0.00,,SKC,0.00,473.00,VWS V14.00,2013-08-13 22:58:00,
2013-08-13 18:00:00,100.7,59.6,29.52,South,178,0.0,9.0,26,0.00,,SKC,0.00,462.00,VWS V14.01,2013-08-13 23:00:00,
2013-08-13 18:03:00,100.7,59.6,29.52,South,179,2.0,7.0,26,0.00,,SKC,0.00,455.00,VWS V14.00,2013-08-13 23:03:00,
2013-08-13 18:08:00,100.8,59.7,29.52,South,178,6.0,7.0,26,0.00,,SKC,0.00,439.00,VWS V14.00,2013-08-13 23:08:00,
2013-08-13 18:10:00,100.9,58.7,29.51,South,178,0.0,7.0,25,0.00,,SKC,0.00,425.00,VWS V14.01,2013-08-13 23:10:00,
2013-08-13 18:13:00,100.9,58.7,29.52,South,178,4.0,6.0,25,0.00,,SKC,0.00,420.00,VWS V14.00,2013-08-13 23:13:00,
2013-08-13 18:18:00,100.4,58.2,29.52,South,178,6.0,8.0,25,0.00,,SKC,0.00,408.00,VWS V14.00,2013-08-13 23:18:00,
2013-08-13 18:20:00,100.2,59.2,29.52,South,178,8.0,9.0,26,0.00,,SKC,0.00,401.00,VWS V14.01,2013-08-13 23:20:00,
2013-08-13 18:23:00,100.1,58.0,29.52,South,178,5.0,10.0,25,0.00,,SKC,0.00,394.00,VWS V14.00,2013-08-13 23:23:00,
2013-08-13 18:28:00,100.0,59.0,29.52,South,178,0.0,10.0,26,0.00,,SKC,0.00,381.00,VWS V14.00,2013-08-13 23:28:00,
2013-08-13 18:30:00,99.8,57.7,29.52,South,178,0.0,10.0,25,0.00,,SKC,0.00,251.00,VWS V14.01,2013-08-13 23:30:00,
2013-08-13 18:33:00,99.8,57.7,29.52,South,178,0.0,5.0,25,0.00,,SKC,0.00,364.00,VWS V14.00,2013-08-13 23:33:00,
2013-08-13 18:38:00,99.7,58.7,29.52,South,178,0.0,9.0,26,0.00,,SKC,0.00,341.00,VWS V14.00,2013-08-13 23:38:00,
2013-08-13 18:40:00,99.7,58.7,29.52,South,178,1.0,9.0,26,0.00,,SKC,0.00,323.00,VWS V14.01,2013-08-13 23:40:00,
2013-08-13 18:43:00,99.6,58.7,29.52,South,178,6.0,7.0,26,0.00,,SKC,0.00,316.00,VWS V14.00,2013-08-13 23:43:00,
2013-08-13 18:48:00,99.2,58.3,29.52,South,178,7.0,8.0,26,0.00,,SKC,0.00,299.00,VWS V14.00,2013-08-13 23:48:00,
2013-08-13 18:50:00,99.0,58.2,29.51,South,178,0.0,8.0,26,0.00,,SKC,0.00,288.00,VWS V14.01,2013-08-13 23:50:00,
2013-08-13 18:53:00,99.0,58.2,29.52,South,179,6.0,9.0,26,0.00,,SKC,0.00,279.00,VWS V14.00,2013-08-13 23:53:00,
2013-08-13 18:58:00,99.0,58.2,29.52,South,178,5.0,9.0,26,0.00,,SKC,0.00,262.00,VWS V14.00,2013-08-13 23:58:00,
2013-08-13 19:00:00,99.0,58.2,29.52,South,178,4.0,9.0,26,0.00,,SKC,0.00,250.00,VWS V14.01,2013-08-14 00:00:00,
2013-08-13 19:03:00,99.0,58.2,29.51,South,178,4.0,9.0,26,0.00,,SKC,0.00,243.00,VWS V14.00,2013-08-14 00:03:00,
2013-08-13 19:08:00,98.9,58.1,29.52,South,178,2.0,9.0,26,0.00,,SKC,0.00,223.00,VWS V14.00,2013-08-14 00:08:00,
2013-08-13 19:10:00,98.9,58.1,29.52,South,178,2.0,9.0,26,0.00,,SKC,0.00,207.00,VWS V14.01,2013-08-14 00:10:00,
2013-08-13 19:13:00,98.9,58.1,29.51,South,178,7.0,8.0,26,0.00,,SKC,0.00,199.00,VWS V14.00,2013-08-14 00:13:00,
2013-08-13 19:18:00,98.7,59.0,29.51,South,178,7.0,8.0,27,0.00,,SKC,0.00,174.00,VWS V14.00,2013-08-14 00:18:00,
2013-08-13 19:20:00,98.7,59.0,29.51,South,178,1.0,8.0,27,0.00,,SKC,0.00,160.00,VWS V14.01,2013-08-14 00:20:00,
2013-08-13 19:23:00,98.6,58.9,29.51,South,178,5.0,6.0,27,0.00,,SKC,0.00,153.00,VWS V14.00,2013-08-14 00:23:00,
2013-08-13 19:28:00,98.5,58.8,29.51,South,178,4.0,7.0,27,0.00,,SKC,0.00,132.00,VWS V14.00,2013-08-14 00:28:00,
2013-08-13 19:30:00,98.3,58.6,29.51,South,178,0.0,7.0,27,0.00,,SKC,0.00,123.00,VWS V14.01,2013-08-14 00:30:00,
2013-08-13 19:33:00,98.2,58.5,29.52,South,178,6.0,9.0,27,0.00,,SKC,0.00,114.00,VWS V14.00,2013-08-14 00:33:00,
2013-08-13 19:38:00,97.9,59.3,29.52,South,178,2.0,9.0,28,0.00,,SKC,0.00,93.00,VWS V14.00,2013-08-14 00:38:00,
2013-08-13 19:40:00,97.7,59.1,29.52,South,178,1.0,9.0,28,0.00,,SKC,0.00,81.00,VWS V14.01,2013-08-14 00:40:00,
2013-08-13 19:43:00,97.6,59.0,29.52,South,178,4.0,4.0,28,0.00,,SKC,0.00,74.00,VWS V14.00,2013-08-14 00:43:00,
2013-08-13 19:48:00,97.4,58.9,29.51,South,178,6.0,6.0,28,0.00,,SKC,0.00,56.00,VWS V14.00,2013-08-14 00:48:00,
2013-08-13 19:50:00,97.3,58.8,29.52,South,178,2.0,6.0,28,0.00,,SKC,0.00,39.00,VWS V14.01,2013-08-14 00:50:00,
2013-08-13 19:53:00,97.2,58.7,29.51,South,178,2.0,6.0,28,0.00,,SKC,0.00,21.00,VWS V14.00,2013-08-14 00:53:00,
2013-08-13 19:58:00,96.9,58.4,29.51,South,178,0.0,6.0,28,0.00,,SKC,0.00,19.00,VWS V14.00,2013-08-14 00:58:00,
2013-08-13 20:00:00,96.8,59.3,29.52,South,178,0.0,6.0,29,0.00,,SKC,0.00,16.00,VWS V14.01,2013-08-14 01:00:00,
2013-08-13 20:03:00,96.7,59.2,29.51,South,178,0.0,4.0,29,0.00,,SKC,0.00,16.00,VWS V14.00,2013-08-14 01:03:00,
2013-08-13 20:08:00,96.4,59.0,29.52,South,179,4.0,5.0,29,0.00,,SKC,0.00,11.00,VWS V14.00,2013-08-14 01:08:00,
2013-08-13 20:10:00,96.1,58.7,29.52,South,178,4.0,5.0,29,0.00,,SKC,0.00,9.00,VWS V14.01,2013-08-14 01:10:00,
2013-08-13 20:13:00,95.8,59.4,29.51,South,178,0.0,4.0,30,0.00,,SKC,0.00,7.00,VWS V14.00,2013-08-14 01:13:00,
2013-08-13 20:18:00,95.2,58.9,29.52,South,178,4.0,5.0,30,0.00,,SKC,0.00,0.00,VWS V14.00,2013-08-14 01:18:00,
2013-08-13 20:20:00,94.7,59.4,29.52,South,178,4.0,5.0,31,0.00,,SKC,0.00,0.00,VWS V14.01,2013-08-14 01:20:00,
2013-08-13 20:23:00,94.5,60.1,29.52,South,178,5.0,6.0,32,0.00,,SKC,0.00,0.00,VWS V14.00,2013-08-14 01:23:00,
2013-08-13 20:28:00,93.9,60.5,29.53,South,178,2.0,6.0,33,0.00,,SKC,0.00,0.00,VWS V14.00,2013-08-14 01:28:00,
2013-08-13 20:30:00,93.6,61.0,29.52,South,179,4.0,7.0,34,0.00,,SKC,0.00,0.00,VWS V14.01,2013-08-14 01:30:00,
2013-08-13 20:33:00,93.5,61.0,29.52,South,178,4.0,6.0,34,0.00,,SKC,0.00,0.00,VWS V14.00,2013-08-14 01:33:00,
2013-08-13 20:38:00,93.1,61.4,29.53,South,178,1.0,6.0,35,0.00,,SKC,0.00,0.00,VWS V14.00,2013-08-14 01:38:00,
2013-08-13 20:40:00,92.8,62.0,29.53,South,178,4.0,10.0,36,0.00,,SKC,0.00,0.00,VWS V14.01,2013-08-14 01:40:00,
2013-08-13 20:43:00,92.7,61.9,29.53,South,178,8.0,11.0,36,0.00,,SKC,0.00,0.00,VWS V14.00,2013-08-14 01:43:00,
2013-08-13 20:48:00,92.3,62.3,29.53,South,178,8.0,11.0,37,0.00,,SKC,0.00,0.00,VWS V14.00,2013-08-14 01:48:00,
2013-08-13 20:50:00,92.1,62.1,29.53,South,178,1.0,11.0,37,0.00,,SKC,0.00,0.00,VWS V14.01,2013-08-14 01:50:00,
2013-08-13 20:53:00,92.1,62.1,29.53,South,178,1.0,6.0,37,0.00,,SKC,0.00,0.00,VWS V14.00,2013-08-14 01:53:00,
2013-08-13 20:58:00,91.8,61.8,29.53,South,178,2.0,6.0,37,0.00,,SKC,0.00,0.00,VWS V14.00,2013-08-14 01:58:00,
2013-08-13 21:00:00,91.6,62.4,29.53,South,178,0.0,7.0,38,0.00,,SKC,0.00,0.00,VWS V14.01,2013-08-14 02:00:00,
2013-08-13 21:03:00,91.5,62.3,29.53,South,178,6.0,6.0,38,0.00,,SKC,0.00,0.00,VWS V14.00,2013-08-14 02:03:00,
2013-08-13 21:08:00,91.3,62.2,29.53,South,178,2.0,7.0,38,0.00,,SKC,0.00,0.00,VWS V14.00,2013-08-14 02:08:00,
2013-08-13 21:10:00,91.1,62.0,29.54,South,178,5.0,7.0,38,0.00,,SKC,0.00,0.00,VWS V14.01,2013-08-14 02:10:00,
2013-08-13 21:13:00,91.0,62.6,29.54,South,178,1.0,6.0,39,0.00,,SKC,0.00,0.00,VWS V14.00,2013-08-14 02:13:00,
2013-08-13 21:18:00,90.7,62.4,29.54,South,178,0.0,6.0,39,0.00,,SKC,0.00,0.00,VWS V14.00,2013-08-14 02:18:00,
2013-08-13 21:20:00,90.5,62.2,29.54,South,178,7.0,8.0,39,0.00,,SKC,0.00,0.00,VWS V14.01,2013-08-14 02:20:00,
2013-08-13 21:23:00,90.5,62.2,29.54,South,178,4.0,7.0,39,0.00,,SKC,0.00,0.00,VWS V14.00,2013-08-14 02:23:00,
2013-08-13 21:28:00,90.3,62.0,29.54,South,178,2.0,7.0,39,0.00,,SKC,0.00,0.00,VWS V14.00,2013-08-14 02:28:00,
2013-08-13 21:30:00,90.1,62.5,29.55,South,178,4.0,7.0,40,0.00,,SKC,0.00,0.00,VWS V14.01,2013-08-14 02:30:00,
2013-08-13 21:33:00,90.1,62.5,29.55,South,178,4.0,6.0,40,0.00,,SKC,0.00,0.00,VWS V14.00,2013-08-14 02:33:00,
2013-08-13 21:38:00,89.9,62.4,29.55,South,178,0.0,8.0,40,0.00,,SKC,0.00,0.00,VWS V14.00,2013-08-14 02:38:00,
2013-08-13 21:40:00,89.8,62.3,29.55,South,178,6.0,8.0,40,0.00,,SKC,0.00,0.00,VWS V14.01,2013-08-14 02:40:00,
2013-08-13 21:43:00,89.8,62.3,29.55,South,178,7.0,7.0,40,0.00,,SKC,0.00,0.00,VWS V14.00,2013-08-14 02:43:00,
2013-08-13 21:48:00,89.6,62.1,29.55,South,178,2.0,12.0,40,0.00,,SKC,0.00,0.00,VWS V14.00,2013-08-14 02:48:00,
2013-08-13 21:50:00,89.4,61.9,29.55,South,178,4.0,12.0,40,0.00,,SKC,0.00,0.00,VWS V14.01,2013-08-14 02:50:00,
2013-08-13 21:53:00,89.4,62.6,29.55,South,178,5.0,7.0,41,0.00,,SKC,0.00,0.00,VWS V14.00,2013-08-14 02:53:00,
2013-08-13 21:58:00,89.2,62.4,29.55,South,178,5.0,8.0,41,0.00,,SKC,0.00,0.00,VWS V14.00,2013-08-14 02:58:00,
2013-08-13 22:00:00,89.1,62.3,29.55,South,178,5.0,8.0,41,0.00,,SKC,0.00,0.00,VWS V14.01,2013-08-14 03:00:00,
2013-08-13 22:03:00,89.0,62.3,29.56,South,178,2.0,5.0,41,0.00,,SKC,0.00,0.00,VWS V14.00,2013-08-14 03:03:00,
2013-08-13 22:08:00,88.8,62.1,29.56,South,178,2.0,6.0,41,0.00,,SKC,0.00,0.00,VWS V14.00,2013-08-14 03:08:00,
2013-08-13 22:10:00,88.7,62.7,29.56,South,178,2.0,7.0,42,0.00,,SKC,0.00,0.00,VWS V14.01,2013-08-14 03:10:00,
2013-08-13 22:13:00,88.6,62.6,29.55,South,178,1.0,7.0,42,0.00,,SKC,0.00,0.00,VWS V14.00,2013-08-14 03:13:00,
2013-08-13 22:18:00,88.5,62.5,29.55,South,178,4.0,9.0,42,0.00,,SKC,0.00,0.00,VWS V14.00,2013-08-14 03:18:00,
2013-08-13 22:20:00,88.4,62.4,29.56,South,178,1.0,9.0,42,0.00,,SKC,0.00,0.00,VWS V14.01,2013-08-14 03:20:00,
2013-08-13 22:23:00,88.4,62.4,29.56,South,178,4.0,6.0,42,0.00,,SKC,0.00,0.00,VWS V14.00,2013-08-14 03:23:00,
2013-08-13 22:28:00,88.3,62.3,29.56,South,178,4.0,9.0,42,0.00,,SKC,0.00,0.00,VWS V14.00,2013-08-14 03:28:00,
2013-08-13 22:30:00,88.1,62.8,29.56,South,178,5.0,9.0,43,0.00,,SKC,0.00,0.00,VWS V14.01,2013-08-14 03:30:00,
2013-08-13 22:33:00,88.1,62.8,29.56,South,178,6.0,7.0,43,0.00,,SKC,0.00,0.00,VWS V14.00,2013-08-14 03:33:00,
2013-08-13 22:38:00,88.0,62.7,29.56,South,178,5.0,7.0,43,0.00,,SKC,0.00,0.00,VWS V14.00,2013-08-14 03:38:00,
2013-08-13 22:40:00,87.9,62.6,29.56,South,178,6.0,10.0,43,0.00,,SKC,0.00,0.00,VWS V14.01,2013-08-14 03:40:00,
2013-08-13 22:43:00,87.9,62.6,29.56,South,178,5.0,7.0,43,0.00,,SKC,0.00,0.00,VWS V14.00,2013-08-14 03:43:00,
2013-08-13 22:48:00,87.8,62.5,29.56,South,178,4.0,7.0,43,0.00,,SKC,0.00,0.00,VWS V14.00,2013-08-14 03:48:00,
2013-08-13 22:50:00,87.6,63.0,29.56,South,178,2.0,11.0,44,0.00,,SKC,0.00,0.00,VWS V14.01,2013-08-14 03:50:00,
2013-08-13 22:53:00,87.6,63.0,29.56,South,178,1.0,1.0,44,0.00,,SKC,0.00,0.00,VWS V14.00,2013-08-14 03:53:00,
2013-08-13 22:58:00,87.4,62.8,29.56,South,178,9.0,9.0,44,0.00,,SKC,0.00,0.00,VWS V14.00,2013-08-14 03:58:00,
2013-08-13 23:00:00,87.2,62.7,29.56,South,178,6.0,9.0,44,0.00,,SKC,0.00,0.00,VWS V14.01,2013-08-14 04:00:00,
2013-08-13 23:01:00,87.3,62.7,29.56,South,178,5.0,9.0,44,0.00,,SKC,0.00,0.00,VWS V14.00,2013-08-14 04:01:00,
2013-08-13 23:06:00,87.1,62.6,29.57,South,178,9.0,9.0,44,0.00,,SKC,0.00,0.00,VWS V14.00,2013-08-14 04:06:00,
2013-08-13 23:10:00,87.0,63.1,29.56,South,178,10.0,11.0,45,0.00,,SKC,0.00,0.00,VWS V14.01,2013-08-14 04:10:00,
2013-08-13 23:11:00,87.0,63.1,29.56,South,178,4.0,11.0,45,0.00,,SKC,0.00,0.00,VWS V14.00,2013-08-14 04:11:00,
2013-08-13 23:16:00,86.9,63.0,29.56,South,178,5.0,8.0,45,0.00,,SKC,0.00,0.00,VWS V14.00,2013-08-14 04:16:00,
2013-08-13 23:20:00,86.7,62.8,29.56,South,178,4.0,11.0,45,0.00,,SKC,0.00,0.00,VWS V14.01,2013-08-14 04:20:00,
2013-08-13 23:21:00,86.8,62.9,29.56,South,178,1.0,11.0,45,0.00,,SKC,0.00,0.00,VWS V14.00,2013-08-14 04:21:00,
2013-08-13 23:26:00,86.6,62.8,29.56,South,178,5.0,8.0,45,0.00,,SKC,0.00,0.00,VWS V14.00,2013-08-14 04:26:00,
2013-08-13 23:30:00,86.5,63.3,29.56,South,178,4.0,10.0,46,0.00,,SKC,0.00,0.00,VWS V14.01,2013-08-14 04:30:00,
2013-08-13 23:31:00,86.5,62.7,29.56,South,178,1.0,10.0,45,0.00,,SKC,0.00,0.00,VWS V14.00,2013-08-14 04:31:00,
2013-08-13 23:36:00,86.3,63.1,29.56,South,178,6.0,7.0,46,0.00,,SKC,0.00,0.00,VWS V14.00,2013-08-14 04:36:00,
2013-08-13 23:40:00,86.1,62.9,29.56,South,178,4.0,9.0,46,0.00,,SKC,0.00,0.00,VWS V14.01,2013-08-14 04:40:00,
2013-08-13 23:41:00,86.2,63.0,29.56,South,178,7.0,9.0,46,0.00,,SKC,0.00,0.00,VWS V14.00,2013-08-14 04:41:00,
2013-08-13 23:46:00,86.0,62.8,29.56,South,178,6.0,9.0,46,0.00,,SKC,0.00,0.00,VWS V14.00,2013-08-14 04:46:00,
2013-08-13 23:50:00,85.9,62.7,29.56,South,178,2.0,9.0,46,0.00,,SKC,0.00,0.00,VWS V14.01,2013-08-14 04:50:00,
2013-08-13 23:51:00,85.9,62.7,29.56,South,178,1.0,9.0,46,0.00,,SKC,0.00,0.00,VWS V14.00,2013-08-14 04:51:00,
2013-08-13 23:56:00,85.7,63.2,29.56,South,178,2.0,7.0,47,0.00,,SKC,0.00,0.00,VWS V14.00,2013-08-14 04:56:00,